DW3949 Weather Reports


time (UTC)temp
C
wind
direction
speed
KPH
gust
KPH
rain 1hr
cm
rain 24hr
cm
rain mn
cm
humidity
%
barometer
mb
20260510033844 15 55 0.0 1.6 0.00 0.00 0.00 83 1010.3
20260510033341 15 55 0.0 3.2 0.00 0.00 0.00 83 1010.2
20260510032841 15 55 0.0 3.2 0.00 0.00 0.00 82 1010.2
20260510032339 16 55 0.0 3.2 0.00 0.00 0.00 82 1010.2
20260510031839 16 55 0.0 3.2 0.00 0.00 0.00 82 1010.2
20260510031338 16 55 1.6 3.2 0.00 0.00 0.00 82 1010.2
20260510030837 16 55 1.6 3.2 0.00 0.00 0.00 82 1010.2
20260510030332 16 55 0.0 3.2 0.00 0.00 0.00 82 1010.2
20260510030327 16 55 0.0 4.8 0.00 0.00 0.00 81 1010.2
20260510025931 16 55 0.0 4.8 0.00 0.00 0.00 81 1010.2
20260510025438 16 55 1.6 4.8 0.00 0.00 0.00 81 1010.1
20260510024327 16 55 1.6 3.2 0.00 0.00 0.00 80 1010.1
20260510024323 16 55 0.0 4.8 0.00 0.00 0.00 81 1010.1
20260510023324 16 55 0.0 3.2 0.00 0.00 0.00 79 1010.1
20260510022823 16 55 0.0 3.2 0.00 0.00 0.00 80 1010.1
20260510022323 16 55 0.0 3.2 0.00 0.00 0.00 80 1009.9
20260510022318 16 55 0.0 3.2 0.00 0.00 0.00 80 1010.0
20260510021315 16 55 0.0 3.2 0.00 0.00 0.00 79 1009.9
20260510021310 17 55 0.0 3.2 0.00 0.00 0.00 79 1009.9
20260510020307 17 99 0.0 3.2 0.00 0.00 0.00 78 1009.9
20260510015757 17 84 0.0 4.8 0.00 0.00 0.00 78 1009.8
20260510015256 17 113 0.0 4.8 0.00 0.00 0.00 78 1009.8
20260510014750 17 113 1.6 4.8 0.00 0.00 0.00 77 1009.8
20260510014248 17 90 1.6 6.4 0.00 0.00 0.00 77 1009.8
20260510014241 17 94 0.0 6.4 0.00 0.00 0.00 77 1009.8
20260510013244 18 96 1.6 9.7 0.00 0.00 0.00 75 1009.6
20260510013239 17 107 1.6 6.4 0.00 0.00 0.00 76 1009.7
20260510012236 18 123 1.6 9.7 0.00 0.00 0.00 75 1009.5
20260510011737 18 59 1.6 4.8 0.00 0.00 0.00 75 1009.3
20260510011231 18 110 1.6 9.7 0.00 0.00 0.00 73 1009.2
20260510011227 18 66 1.6 9.7 0.00 0.00 0.00 74 1009.3
20260510010216 18 82 1.6 6.4 0.00 0.00 0.00 72 1009.0
20260510005717 18 107 1.6 6.4 0.00 0.00 0.00 72 1009.1
20260510005211 18 162 1.6 6.4 0.00 0.00 0.00 71 1009.0
20260510004712 18 89 0.0 6.4 0.00 0.00 0.00 71 1008.9
20260510004204 17 323 0.0 3.2 0.00 0.00 0.00 69 1008.9
20260510003704 18 323 0.0 0.0 0.00 0.00 0.00 68 1008.8
20260510003202 18 323 0.0 0.0 0.00 0.00 0.00 68 1008.8
20260510002703 18 323 0.0 0.0 0.00 0.00 0.00 67 1008.8
20260510002200 18 323 0.0 0.0 0.00 0.00 0.00 66 1008.7
20260510001657 18 323 0.0 0.0 0.00 0.00 0.00 66 1008.8
20260510001159 19 323 0.0 0.0 0.00 0.00 0.00 66 1008.7
20260510000655 19 323 0.0 0.0 0.00 0.00 0.00 65 1008.7
20260510000149 20 323 0.0 0.0 0.00 0.00 0.00 64 1008.7
20260509235651 20 323 0.0 0.0 0.00 0.00 0.00 64 1008.7
20260509235143 20 323 0.0 0.0 0.00 0.00 0.00 63 1008.6
20260509234635 20 323 0.0 0.0 0.00 0.00 0.00 63 1008.6
20260509234132 20 323 0.0 0.0 0.00 0.00 0.00 63 1008.6
20260509233631 20 323 0.0 0.0 0.00 0.00 0.00 64 1008.5
20260509233133 20 323 0.0 3.2 0.00 0.00 0.00 64 1008.5
20260509232626 20 323 0.0 3.2 0.00 0.00 0.00 62 1008.4
20260509232621 20 323 0.0 3.2 0.00 0.00 0.00 63 1008.4
20260509231623 20 323 0.0 3.2 0.00 0.00 0.00 62 1008.3
20260509231121 21 323 0.0 3.2 0.00 0.00 0.00 61 1008.3
20260509230621 21 323 1.6 3.2 0.00 0.00 0.00 60 1008.3
20260509230124 21 323 1.6 8.0 0.00 0.00 0.00 60 1008.3
20260509230119 21 323 1.6 8.0 0.00 0.00 0.00 59 1008.3
20260509225733 21 323 3.2 8.0 0.00 0.00 0.00 59 1008.4
20260509224609 21 289 1.6 8.0 0.00 0.00 0.00 58 1008.4
20260509224109 21 113 0.0 3.2 0.00 0.00 0.00 59 1008.3
20260509223609 21 320 0.0 3.2 0.00 0.00 0.00 59 1008.3
20260509223100 21 319 0.0 6.4 0.00 0.00 0.00 58 1008.3
20260509222559 22 319 1.6 6.4 0.00 0.00 0.00 57 1008.4
20260509222100 22 319 1.6 6.4 0.00 0.00 0.00 55 1008.4
20260509221552 21 313 1.6 6.4 0.00 0.00 0.00 60 1008.4
20260509221050 21 50 1.6 6.4 0.00 0.00 0.00 57 1008.3
20260509220546 21 329 3.2 6.4 0.00 0.00 0.00 57 1008.3
20260509220541 22 271 3.2 6.4 0.00 0.00 0.00 55 1008.3
20260509215539 21 323 1.6 6.4 0.00 0.00 0.00 57 1008.3
20260509215040 21 260 0.0 8.0 0.00 0.00 0.00 59 1008.3
20260509214537 21 260 1.6 6.4 0.00 0.00 0.00 58 1008.4
20260509214041 22 323 1.6 16.1 0.00 0.00 0.00 55 1008.3
20260509214037 21 260 1.6 8.0 0.00 0.00 0.00 58 1008.3
20260509213038 22 318 1.6 16.1 0.00 0.00 0.00 57 1008.4
20260509212538 22 322 3.2 16.1 0.00 0.00 0.00 60 1008.4
20260509212037 22 301 4.8 16.1 0.00 0.00 0.00 55 1008.3
20260509211540 22 37 3.2 12.9 0.00 0.00 0.00 58 1008.4
20260509211535 22 321 3.2 12.9 0.00 0.00 0.00 56 1008.4
20260509210537 22 292 3.2 12.9 0.00 0.00 0.00 57 1008.3
20260509210032 21 313 1.6 12.9 0.00 0.00 0.00 62 1008.3
20260509210028 22 280 3.2 12.9 0.00 0.00 0.00 57 1008.4
20260509205027 21 204 3.2 12.9 0.00 0.00 0.00 61 1008.4
20260509204521 21 49 4.8 12.9 0.00 0.00 0.00 58 1008.4
20260509204024 22 313 3.2 8.0 0.00 0.00 0.00 57 1008.4
20260509204019 22 38 4.8 11.3 0.00 0.00 0.00 55 1008.4
20260509203017 21 175 3.2 8.0 0.00 0.00 0.00 59 1008.4
20260509202516 21 93 1.6 9.7 0.00 0.00 0.00 66 1008.3
20260509202016 21 211 1.6 9.7 0.00 0.00 0.00 62 1008.3
20260509201513 21 216 3.2 11.3 0.00 0.00 0.00 61 1008.3
20260509201013 21 151 3.2 11.3 0.00 0.00 0.00 62 1008.3
20260509200510 21 265 3.2 8.0 0.00 0.00 0.00 63 1008.4
20260509200010 21 190 3.2 8.0 0.00 0.00 0.00 63 1008.5
20260509195509 20 192 1.6 11.3 0.00 0.00 0.00 65 1008.5
20260509195005 21 189 1.6 11.3 0.00 0.00 0.00 64 1008.6
20260509194504 20 269 3.2 11.3 0.00 0.00 0.00 65 1008.6
20260509194004 20 184 3.2 12.9 0.00 0.00 0.00 64 1008.7
20260509193500 20 231 3.2 12.9 0.00 0.00 0.00 65 1008.9
20260509192959 20 346 3.2 12.9 0.00 0.00 0.00 62 1008.9
20260509192458 21 188 3.2 12.9 0.00 0.00 0.00 64 1009.0
20260509191957 20 336 1.6 6.4 0.00 0.00 0.00 63 1009.1
20260509191448 20 244 3.2 11.3 0.00 0.00 0.00 62 1009.2
20260509190946 20 173 3.2 11.3 0.00 0.00 0.00 64 1009.4
20260509190447 20 190 3.2 11.3 0.00 0.00 0.00 62 1009.5
20260509185944 20 211 3.2 11.3 0.00 0.00 0.00 62 1009.5
20260509185445 21 94 3.2 11.3 0.00 0.00 0.00 58 1009.3
20260509184946 20 320 3.2 11.3 0.00 0.00 0.00 63 1009.3
20260509184443 19 178 3.2 6.4 0.00 0.00 0.00 65 1009.6
20260509184437 20 208 1.6 6.4 0.00 0.00 0.00 64 1009.5
20260509183441 19 20 1.6 6.4 0.00 0.00 0.00 63 1009.6
20260509183436 19 163 1.6 6.4 0.00 0.00 0.00 65 1009.6
20260509182435 19 348 1.6 6.4 0.00 0.00 0.00 63 1009.6
20260509181930 19 305 1.6 3.2 0.00 0.00 0.00 63 1009.5
20260509181434 19 279 1.6 3.2 0.00 0.00 0.00 64 1009.7
20260509181429 18 190 1.6 3.2 0.00 0.00 0.00 66 1009.9
20260509180428 18 239 1.6 8.0 0.00 0.00 0.00 66 1010.1
20260509175929 18 136 1.6 8.0 0.00 0.00 0.00 65 1010.3
20260509175432 18 277 3.2 6.4 0.00 0.00 0.00 66 1010.4
20260509175428 18 277 0.0 6.4 0.00 0.00 0.00 68 1010.4
20260509175032 18 277 1.6 6.4 0.00 0.00 0.00 67 1010.4
20260509174542 19 351 3.2 12.9 0.00 0.00 0.00 62 1010.4
20260509173427 19 317 4.8 12.9 0.00 0.00 0.00 61 1010.5
20260509172920 18 273 3.2 12.9 0.00 0.00 0.00 64 1010.7
20260509172915 19 32 4.8 12.9 0.00 0.00 0.00 62 1010.5
20260509171915 18 60 3.2 9.7 0.00 0.00 0.00 64 1010.7
20260509171417 19 303 3.2 9.7 0.00 0.00 0.00 62 1010.8
20260509170918 18 309 3.2 11.3 0.00 0.00 0.00 64 1010.8
20260509170914 18 309 3.2 9.7 0.00 0.00 0.00 65 1010.8
20260509165914 18 320 1.6 11.3 0.00 0.00 0.00 64 1010.9
20260509165404 18 265 3.2 8.0 0.00 0.00 0.00 62 1010.8
20260509164903 18 292 3.2 9.7 0.00 0.00 0.00 64 1010.8
20260509164520 18 350 3.2 8.0 0.00 0.00 0.00 62 1010.7
20260509164408 17 302 3.2 8.0 0.00 0.00 0.00 63 1010.8
20260509164404 18 262 3.2 9.7 0.00 0.00 0.00 64 1010.8
20260509162902 18 355 1.6 6.4 0.00 0.00 0.00 63 1010.8
20260509162857 18 290 3.2 6.4 0.00 0.00 0.00 62 1010.8
20260509161903 17 302 3.2 6.4 0.00 0.00 0.00 66 1011.0
20260509161858 17 5 1.6 6.4 0.00 0.00 0.00 64 1010.8
20260509161513 17 328 3.2 4.8 0.00 0.00 0.00 65 1010.9
20260509160400 17 221 1.6 4.8 0.00 0.00 0.00 65 1011.0
20260509160355 17 155 1.6 4.8 0.00 0.00 0.00 63 1010.9
20260509155353 17 94 1.6 6.4 0.00 0.00 0.00 66 1011.0
20260509154848 17 131 1.6 9.7 0.00 0.00 0.00 66 1011.0
20260509154343 17 138 3.2 11.3 0.00 0.00 0.00 63 1011.0
20260509153842 17 254 1.6 11.3 0.00 0.00 0.00 62 1011.0
20260509153341 17 306 1.6 6.4 0.00 0.00 0.00 64 1011.1
20260509152842 17 290 3.2 6.4 0.00 0.00 0.00 63 1011.2
20260509152341 17 324 1.6 6.4 0.00 0.00 0.00 65 1011.1
20260509151841 17 287 1.6 6.4 0.00 0.00 0.00 65 1011.2
20260509151340 16 287 1.6 6.4 0.00 0.00 0.00 64 1011.2
20260509150840 16 153 1.6 6.4 0.00 0.00 0.00 65 1011.2
20260509150340 16 203 1.6 6.4 0.00 0.00 0.00 65 1011.3
20260509145839 16 131 1.6 6.4 0.00 0.00 0.00 66 1011.3
20260509145344 15 355 1.6 3.2 0.00 0.00 0.00 66 1011.5
20260509145340 16 355 1.6 3.2 0.00 0.00 0.00 67 1011.5
20260509144855 15 355 1.6 3.2 0.00 0.00 0.00 70 1011.6
20260509143830 15 244 1.6 4.8 0.00 0.00 0.00 69 1011.6
20260509143825 15 185 1.6 8.0 0.00 0.00 0.00 66 1011.6
20260509142824 15 67 1.6 8.0 0.00 0.00 0.00 67 1011.7
20260509142323 15 138 1.6 8.0 0.00 0.00 0.00 68 1011.8
20260509142319 15 169 1.6 8.0 0.00 0.00 0.00 68 1011.7
20260509141320 15 159 1.6 3.2 0.00 0.00 0.00 67 1011.8
20260509140825 15 101 1.6 4.8 0.00 0.00 0.00 68 1011.5
20260509140821 15 165 1.6 3.2 0.00 0.00 0.00 66 1011.6
20260509135814 15 194 1.6 3.2 0.00 0.00 0.00 67 1011.6
20260509135810 15 132 1.6 4.8 0.00 0.00 0.00 68 1011.5
20260509134758 15 142 1.6 4.8 0.00 0.00 0.00 66 1011.6
20260509134259 15 158 1.6 4.8 0.00 0.00 0.00 66 1011.6
20260509133756 15 111 1.6 4.8 0.00 0.00 0.00 66 1011.7
20260509133257 15 180 1.6 4.8 0.00 0.00 0.00 65 1011.7
20260509132758 15 156 1.6 4.8 0.00 0.00 0.00 68 1011.6
20260509132301 15 150 1.6 4.8 0.00 0.00 0.00 67 1011.6
20260509132257 15 227 1.6 4.8 0.00 0.00 0.00 66 1011.6
20260509131913 15 158 1.6 4.8 0.00 0.00 0.00 66 1011.7
20260509131412 15 154 1.6 4.8 0.00 0.00 0.00 68 1011.7
20260509130912 14 355 1.6 4.8 0.00 0.00 0.00 68 1011.7
20260509130248 14 154 1.6 4.8 0.00 0.00 0.00 67 1011.7
20260509130244 15 315 1.6 4.8 0.00 0.00 0.00 68 1011.7
20260509124741 15 186 1.6 4.8 0.00 0.00 0.00 66 1011.6
20260509124238 15 315 1.6 4.8 0.00 0.00 0.00 68 1011.6
20260509123738 14 199 0.0 3.2 0.00 0.00 0.00 70 1011.6
20260509123234 14 296 0.0 3.2 0.00 0.00 0.00 74 1011.6
20260509122733 14 296 0.0 3.2 0.00 0.00 0.00 67 1011.7
20260509122232 14 277 1.6 8.0 0.00 0.00 0.00 71 1011.6
20260509121737 14 236 1.6 6.4 0.00 0.00 0.00 67 1011.7
20260509121733 14 21 1.6 8.0 0.00 0.00 0.00 68 1011.7
20260509120732 14 104 1.6 4.8 0.00 0.00 0.00 70 1011.6
20260509120230 14 16 1.6 4.8 0.00 0.00 0.00 70 1011.6
20260509115726 13 29 0.0 4.8 0.00 0.00 0.00 69 1011.5
20260509115228 13 38 0.0 3.2 0.00 0.00 0.00 68 1011.5
20260509114724 13 37 0.0 3.2 0.00 0.00 0.00 70 1011.4
20260509114224 13 37 0.0 3.2 0.00 0.00 0.00 72 1011.3
20260509113725 13 38 0.0 3.2 0.00 0.00 0.00 70 1011.4
20260509113224 13 37 0.0 3.2 0.00 0.00 0.00 70 1011.2
20260509112722 13 38 0.0 3.2 0.00 0.00 0.00 70 1011.2
20260509112224 13 38 0.0 3.2 0.00 0.00 0.00 72 1011.1
20260509111722 13 38 0.0 3.2 0.00 0.00 0.00 72 1011.1
20260509111224 13 32 0.0 3.2 0.00 0.00 0.00 72 1011.0
20260509110721 13 32 0.0 1.6 0.00 0.00 0.00 71 1011.1
20260509110223 13 32 0.0 1.6 0.00 0.00 0.00 70 1011.1
20260509110219 13 32 0.0 1.6 0.00 0.00 0.00 69 1011.0
20260509105834 12 32 0.0 1.6 0.00 0.00 0.00 69 1011.0
20260509105329 12 32 0.0 1.6 0.00 0.00 0.00 70 1011.0
20260509104213 12 178 0.0 1.6 0.00 0.00 0.00 70 1010.9
20260509103714 12 178 0.0 1.6 0.00 0.00 0.00 69 1010.9
20260509103203 12 178 0.0 1.6 0.00 0.00 0.00 68 1010.8
20260509102659 12 178 0.0 1.6 0.00 0.00 0.00 68 1010.8
20260509102202 12 142 0.0 1.6 0.00 0.00 0.00 69 1010.7
20260509101659 12 142 0.0 1.6 0.00 0.00 0.00 68 1010.8
20260509101158 12 142 0.0 1.6 0.00 0.00 0.00 67 1010.8
20260509100658 12 336 0.0 0.0 0.00 0.00 0.00 69 1010.8
20260509100154 13 336 0.0 0.0 0.00 0.00 0.00 68 1010.8
20260509095651 13 336 0.0 0.0 0.00 0.00 0.00 67 1010.7
20260509095151 13 336 0.0 0.0 0.00 0.00 0.00 66 1010.7
20260509094651 13 336 0.0 0.0 0.00 0.00 0.00 66 1010.8
20260509094158 13 336 0.0 0.0 0.00 0.00 0.00 69 1010.9
20260509094154 13 336 0.0 0.0 0.00 0.00 0.00 67 1010.7
20260509093146 13 336 0.0 1.6 0.00 0.00 0.00 64 1010.9
20260509092650 13 336 0.0 3.2 0.00 0.00 0.00 63 1011.0
20260509092644 13 336 0.0 1.6 0.00 0.00 0.00 64 1011.0
20260509091643 13 336 0.0 3.2 0.00 0.00 0.00 62 1011.0
20260509091140 13 336 0.0 3.2 0.00 0.00 0.00 63 1011.1
20260509090642 13 336 0.0 3.2 0.00 0.00 0.00 63 1011.1
20260509090142 13 336 0.0 3.2 0.00 0.00 0.00 64 1011.1
20260509085642 13 168 0.0 3.2 0.00 0.00 0.00 64 1011.2
20260509085638 13 168 0.0 3.2 0.00 0.00 0.00 63 1011.2
20260509085252 13 168 0.0 3.2 0.00 0.00 0.00 65 1011.2
20260509084136 13 168 0.0 3.2 0.00 0.00 0.00 67 1011.2
20260509083625 13 168 0.0 3.2 0.00 0.00 0.00 64 1011.3
20260509083126 13 168 0.0 3.2 0.00 0.00 0.00 65 1011.3
20260509082626 14 168 0.0 3.2 0.00 0.00 0.00 60 1011.3
20260509082112 14 168 0.0 3.2 0.00 0.00 0.00 61 1011.4
20260509081613 14 162 1.6 3.2 0.00 0.00 0.00 60 1011.5
20260509081109 14 162 1.6 3.2 0.00 0.00 0.00 60 1011.5
20260509080611 14 162 1.6 4.8 0.00 0.00 0.00 60 1011.6
20260509080109 14 5 1.6 4.8 0.00 0.00 0.00 60 1011.7
20260509075615 13 5 0.0 3.2 0.00 0.00 0.00 69 1011.7
20260509075610 14 5 1.6 3.2 0.00 0.00 0.00 61 1011.7
20260509074609 13 5 0.0 3.2 0.00 0.00 0.00 64 1011.7
20260509074107 13 5 0.0 3.2 0.00 0.00 0.00 65 1011.7
20260509073607 13 5 0.0 3.2 0.00 0.00 0.00 61 1011.7
20260509073107 13 5 0.0 3.2 0.00 0.00 0.00 66 1011.7
20260509072606 13 5 0.0 3.2 0.00 0.00 0.00 67 1011.6
20260509072105 13 5 0.0 3.2 0.00 0.00 0.00 66 1011.6
20260509071605 13 5 0.0 3.2 0.00 0.00 0.00 64 1011.6
20260509071106 13 5 0.0 3.2 0.00 0.00 0.00 63 1011.5
20260509070607 13 5 0.0 3.2 0.00 0.00 0.00 63 1011.5
20260509070104 13 5 0.0 3.2 0.00 0.00 0.00 63 1011.5
20260509065607 13 5 0.0 3.2 0.00 0.00 0.00 64 1011.5
20260509065603 13 5 0.0 3.2 0.00 0.00 0.00 62 1011.5
20260509064601 13 5 0.0 1.6 0.00 0.00 0.00 65 1011.6
20260509064106 13 5 0.0 1.6 0.00 0.00 0.00 65 1011.7
20260509064101 13 5 0.0 1.6 0.00 0.00 0.00 66 1011.6
20260509063713 13 5 0.0 1.6 0.00 0.00 0.00 66 1011.7
20260509062549 13 5 0.0 1.6 0.00 0.00 0.00 66 1011.8
20260509062051 13 5 0.0 1.6 0.00 0.00 0.00 66 1011.8
20260509062047 13 5 0.0 1.6 0.00 0.00 0.00 66 1011.8
20260509061047 13 5 0.0 1.6 0.00 0.00 0.00 66 1011.9
20260509060547 13 5 0.0 1.6 0.00 0.00 0.00 65 1011.9
20260509060047 13 5 0.0 1.6 0.00 0.00 0.00 62 1011.9
20260509055537 13 5 0.0 1.6 0.00 0.00 0.00 62 1011.9
20260509055037 13 5 0.0 1.6 0.00 0.00 0.00 62 1011.9
20260509054536 13 5 0.0 1.6 0.00 0.00 0.00 62 1011.8
20260509054030 13 5 0.0 1.6 0.00 0.00 0.00 61 1012.0
20260509053528 13 5 0.0 1.6 0.00 0.00 0.00 61 1012.0
20260509053027 13 5 0.0 3.2 0.00 0.00 0.00 61 1011.9
20260509052526 13 5 0.0 3.2 0.00 0.00 0.00 63 1012.0
20260509052025 13 5 0.0 3.2 0.00 0.00 0.00 63 1012.0
20260509051525 13 5 0.0 3.2 0.00 0.00 0.00 63 1012.0
20260509051025 13 5 0.0 1.6 0.00 0.00 0.00 63 1012.0
20260509050525 13 5 0.0 1.6 0.00 0.00 0.00 65 1012.0
20260509050025 13 5 0.0 1.6 0.00 0.00 0.00 65 1012.0
20260509045525 13 5 0.0 1.6 0.00 0.00 0.00 63 1011.9
20260509045024 13 5 0.0 1.6 0.00 0.00 0.00 63 1011.9
20260509044523 13 5 0.0 1.6 0.00 0.00 0.00 64 1011.9
20260509044010 13 5 0.0 1.6 0.00 0.00 0.00 65 1011.9
20260509043513 13 5 0.0 1.6 0.00 0.00 0.00 64 1012.0
20260509043011 13 5 0.0 3.2 0.00 0.00 0.00 63 1012.0
20260509042506 13 5 0.0 3.2 0.00 0.00 0.00 64 1012.0
20260509042007 13 5 0.0 3.2 0.00 0.00 0.00 64 1012.0
20260509041505 13 5 0.0 3.2 0.00 0.00 0.00 64 1012.0
20260509041006 13 5 0.0 3.2 0.00 0.00 0.00 63 1012.0
20260509040614 14 5 0.0 4.8 0.00 0.00 0.00 61 1012.0
20260509040505 13 5 0.0 3.2 0.00 0.00 0.00 63 1012.0
20260509040010 14 5 0.0 4.8 0.00 0.00 0.00 60 1012.0
20260509040006 13 5 0.0 4.8 0.00 0.00 0.00 62 1012.0
20260509034508 13 267 0.0 3.2 0.00 0.00 0.00 62 1012.1
20260509034503 14 5 0.0 4.8 0.00 0.00 0.00 61 1012.1